This demonstration page uses our WeatherBlox Daily Observations layout. Learn more.

Left ArrowRight Arrow

44.8408, -93.29828

Hourly Observations for March 27, 2015

Temp ( °F °C ) Dew Point ( °F °C ) Humidity (%) Winds ( mph kmh ) Pressure ( in mb ) Visibility ( mi km ) Precip ( " mm )
12:53 am 00:53 Clear 25 -3.9 6 -14.4 44 44 N 8 13 30.26 1025 10 16 0.00 0.00
1:53 am 01:53 Clear 24 -4.4 4 -15.6 42 42 N 9 15 30.27 1025 10 16 0.00 0.00
2:53 am 02:53 Clear 23 -5 5 -15 46 46 N 8 13 30.28 1025 10 16 0.00 0.00
3:53 am 03:53 Clear 21 -6.1 3 -16.1 45 45 N 7 11 30.29 1026 10 16 0.00 0.00
4:53 am 04:53 Clear 20 -6.7 3 -16.1 48 48 N 7 11 30.29 1026 10 16 0.00 0.00
5:53 am 05:53 Clear 19 -7.2 3 -16.1 49 49 NNE 7 11 30.30 1026 10 16 0.00 0.00
6:53 am 06:53 Clear 18 -7.8 4 -15.6 54 54 N 5 7 30.32 1027 10 16 0.00 0.00
7:53 am 07:53 Sunny 20 -6.7 5 -15 52 52 N 5 7 30.33 1027 10 16 0.00 0.00
8:53 am 08:53 Sunny 23 -5 5 -15 46 46 ENE 5 7 30.32 1027 10 16 0.00 0.00
9:53 am 09:53 Sunny 25 -3.9 4 -15.6 40 40 Calm 30.32 1027 10 16 0.00 0.00
10:53 am 10:53 Mostly Sunny 27 -2.8 2 -16.7 34 34 VRB 3 6 30.32 1027 10 16 0.00 0.00
11:53 am 11:53 Mostly Sunny 29 -1.7 1 -17.2 30 30 Calm 30.29 1026 10 16 0.00 0.00
12:53 pm 12:53 Mostly Sunny 31 -0.6 1 -17.2 28 28 SW 6 9 30.28 1026 10 16 0.00 0.00
1:53 pm 13:53 Mostly Sunny 33 0.6 0 -17.8 24 24 Calm 30.25 1025 10 16 0.00 0.00
2:53 pm 14:53 Mostly Sunny 34 1.1 -1 -18.3 22 22 E 8 13 30.22 1024 10 16 0.00 0.00
3:53 pm 15:53 Partly Cloudy 35 1.7 4 -15.6 27 27 VRB 3 6 30.19 1023 10 16 0.00 0.00
4:53 pm 16:53 Partly Cloudy 35 1.7 5 -15 28 28 VRB 5 7 30.18 1022 10 16 0.00 0.00
5:53 pm 17:53 Mostly Cloudy 33 0.6 6 -14.4 32 32 SW 8 13 30.19 1022 10 16 0.00 0.00
6:53 pm 18:53 Mostly Cloudy 32 0 5 -15 32 32 SW 10 17 30.20 1023 10 16 0.00 0.00
7:53 pm 19:53 Mostly Cloudy 30 -1.1 3 -16.1 31 31 SW 7 11 30.21 1023 10 16 0.00 0.00
8:53 pm 20:53 Mostly Cloudy 29 -1.7 3 -16.1 33 33 SSW 7 11 30.20 1023 10 16 0.00 0.00
9:53 pm 21:53 Mostly Cloudy 29 -1.7 5 -15 36 36 Calm 30.22 1023 10 16 0.00 0.00
10:53 pm 22:53 Mostly Cloudy 28 -2.2 7 -13.9 41 41 SE 7 11 30.21 1023 10 16 0.00 0.00
11:53 pm 23:53 Mostly Cloudy 27 -2.8 8 -13.3 45 45 Calm 30.22 1023 10 16 0.00 0.00

Powered by AerisWeather